This is the latest recevied weather packets stored in our database for station/object N1UNH. If no packets are shown the sender has not sent any weather packets the latest 10 day(s).
| Time | Temp. | Humidity | Pressure | Rain* | Wind** | Luminosity | Snow |
|---|---|---|---|---|---|---|---|
| 1777725657 | 6.67° C | 95% | 1018 hPa | 0 mm | - | 42 W/m² | - |
| 1777725355 | 6.67° C | 95% | 1018 hPa | 0 mm | - | 54 W/m² | - |
| 1777725052 | 6.67° C | 95% | 1018.2 hPa | 0 mm | - | 56 W/m² | - |
| 1777724748 | 6.67° C | 95% | 1017.9 hPa | 1.78 mm | - | 62 W/m² | - |
| 1777724446 | 6.67° C | 95% | 1018.1 hPa | 1.78 mm | - | 83 W/m² | - |
| 1777724143 | 6.67° C | 95% | 1017.9 hPa | 1.78 mm | - | 83 W/m² | - |
| 1777723840 | 6.67° C | 95% | 1018.1 hPa | 1.78 mm | - | 59 W/m² | - |
| 1777723537 | 6.67° C | 95% | 1018 hPa | 1.27 mm | - | 49 W/m² | - |
| 1777723234 | 6.11° C | 95% | 1017.9 hPa | 3.05 mm | - | 38 W/m² | - |
| 1777722932 | 6.11° C | 95% | 1017.9 hPa | 1.78 mm | - | 29 W/m² | - |
| 1777722627 | 6.11° C | 95% | 1017.9 hPa | 1.27 mm | - | 28 W/m² | - |
| 1777722324 | 6.11° C | 95% | 1017.9 hPa | 1.27 mm | - | 23 W/m² | - |
| 1777722021 | 6.11° C | 95% | 1017.8 hPa | 0 mm | - | 24 W/m² | - |
| 1777721718 | 6.11° C | 95% | 1017.6 hPa | 0 mm | - | 28 W/m² | - |
| 1777721417 | 6.67° C | 95% | 1017.5 hPa | 0 mm | - | 26 W/m² | - |
| 1777721115 | 6.11° C | 95% | 1017.3 hPa | 0 mm | - | 23 W/m² | - |
| 1777720812 | 6.11° C | 95% | 1017.1 hPa | 1.78 mm | - | 22 W/m² | - |
| 1777720509 | 6.11° C | 95% | 1017.5 hPa | 1.78 mm | - | 20 W/m² | - |
| 1777720206 | 6.11° C | 95% | 1017.6 hPa | 0 mm | - | 19 W/m² | - |
| 1777719904 | 6.11° C | 95% | 1017.1 hPa | 0 mm | - | 22 W/m² | - |
| 1777719601 | 6.11° C | 95% | 1017.4 hPa | 0 mm | - | 26 W/m² | - |
| 1777719299 | 6.11° C | 95% | 1017.4 hPa | 0 mm | - | 34 W/m² | - |
| 1777718996 | 6.11° C | 95% | 1017.5 hPa | 0 mm | - | 18 W/m² | - |
| 1777718693 | 6.11° C | 95% | 1017.6 hPa | 1.27 mm | - | 20 W/m² | - |
| 1777718390 | 6.11° C | 95% | 1017.8 hPa | 1.27 mm | - | 15 W/m² | - |
* Rain latest hour (hover to see other rain measurements)
** Current wind speed in m/s (hover to see current wind gust speed)